Flag for Netherlands Weather past 2 weeks in Dordrecht, Netherlands

Now
39 °F

Partly cloudy.


Feels Like: 32 °F
Forecast: 33 / 42 °F
Wind: 13 mph from Northwest

Location: Rotterdam Zestienhoven Airport

Current Time: Dec 29, 2014 at 5:50:01 AM

Latest Report: Dec 29, 2014 at 5:25 AM


Visibility: N/A

Pressure: 30.45 "Hg

Humidity: 87%

Dew point: 36 °F

Location of DordrechtLocation

Historic Weather in Dordrecht — Graph

°F

Dordrecht temperature yesterday

Maximum temperature yesterday: 36 °F (at 11:25 PM)
Minimum temperature yesterday: 27 °F (at 5:55 PM)
Average temperature yesterday: 30 °F

Past Weeks' High & Low Weather Summary

 TemperatureHumidityPressure
High55 °F (Dec 23, 1:25 PM)100% (Dec 14, 4:55 AM)30.54 "Hg (Dec 14, 4:55 AM)
Low27 °F (Dec 28, 5:55 PM)64% (Dec 28, 2:55 AM)29.36 "Hg (Dec 27, 7:55 AM)
Average44 °F86%30.00 "Hg
* Reported Dec 14 4:55 AM — Dec 29 4:25 AM, Dordrecht, Weather by CustomWeather, © 2014

Note: Actual official high and low records may vary slightly from our data, if they occured in-between our weather recording intervals... More about our weather records

Advertising

Dordrecht weather history for previous 24 hours

 ConditionsComfort  
Time TempWeatherWind HumidityBarometerVisibility
4:25 AM
Dec 29
39 °FClear.12 mph87%30.48 "HgN/A
3:55 AM37 °FRain. Passing clouds.10 mph93%30.48 "HgN/A
3:25 AM37 °FRain showers. Overcast.14 mph93%30.48 "Hg3 mi
2:55 AM39 °FPassing clouds.15 mph81%30.48 "HgN/A
2:25 AM39 °FOvercast.15 mph81%30.48 "HgN/A
1:55 AM39 °FPassing clouds.14 mph87%30.48 "HgN/A
1:25 AM37 °FPassing clouds.9 mph93%30.48 "HgN/A
12:55 AM37 °FSprinkles. Passing clouds.10 mph93%30.48 "Hg4 mi
12:25 AM34 °FDrizzle. Mostly cloudy.5 mph100%30.51 "Hg4 mi
11:55 PM
Dec 28
36 °FSprinkles. Partly cloudy.8 mph87%30.51 "Hg3 mi
11:25 PM36 °FPartly cloudy.8 mph87%30.51 "HgN/A
10:55 PM34 °FMostly cloudy.8 mph93%30.51 "HgN/A
10:25 PM32 °FPassing clouds.8 mph93%30.51 "HgN/A
9:55 PM32 °FClear.7 mph87%30.51 "HgN/A
9:25 PM30 °FClear.9 mph86%30.51 "HgN/A
8:55 PM30 °FPassing clouds.9 mph86%30.54 "HgN/A
8:25 PM27 °FClear.9 mph86%30.54 "HgN/A
7:55 PM28 °FClear.6 mph86%30.51 "HgN/A
7:25 PM27 °FOvercast.6 mph86%30.51 "HgN/A
6:55 PM28 °FChilly.5 mph86%30.51 "HgN/A
6:25 PM27 °FClear.2 mph93%30.51 "HgN/A
5:55 PM27 °FClear.3 mph93%30.51 "HgN/A
5:25 PM28 °FClear.5 mph86%30.51 "HgN/A
4:55 PM28 °FChilly.5 mph86%30.48 "HgN/A
4:25 PM32 °FChilly.5 mph80%30.48 "HgN/A
3:55 PM34 °FChilly.2 mph75%30.45 "HgN/A
3:25 PM34 °FClear.2 mph75%30.45 "HgN/A
2:55 PM34 °FChilly.2 mph75%30.45 "HgN/A
2:25 PM32 °FChilly.6 mph80%30.42 "HgN/A
1:55 PM32 °FChilly.7 mph80%30.42 "HgN/A
1:25 PM32 °FClear.8 mph80%30.42 "HgN/A
12:55 PM32 °FChilly.9 mph80%30.42 "HgN/A
12:25 PM32 °FClear.12 mph80%30.39 "HgN/A
11:55 AM32 °FChilly.13 mph80%30.39 "HgN/A
11:25 AM32 °FClear.12 mph80%30.36 "HgN/A
10:55 AM30 °FChilly.12 mph80%30.36 "HgN/A
10:25 AM30 °FClear.15 mph80%30.33 "HgN/A
9:55 AM30 °FChilly.15 mph80%30.30 "HgN/A
9:25 AM28 °FClear.15 mph80%30.27 "HgN/A
8:55 AM28 °FClear.15 mph74%30.24 "HgN/A
8:25 AM28 °FChilly.14 mph69%30.24 "HgN/A
7:55 AM28 °FChilly.15 mph69%30.21 "HgN/A
7:25 AM28 °FClear.15 mph69%30.18 "HgN/A
6:55 AM28 °FChilly.15 mph69%30.15 "HgN/A
6:25 AM28 °FChilly.17 mph69%30.12 "HgN/A
5:55 AM28 °FChilly.21 mph69%30.09 "HgN/A
5:25 AM28 °FChilly.18 mph69%30.07 "HgN/A
Weather by CustomWeather, © 2014

See weather overviewHow to use our weather pages